| time (UTC) | temp F | wind direction | speed knots | gust knots | rain 1hr in | rain 24hr in | rain mn in | humidity % | barometer mb |
| 20260905174813 | 65 | 223 | 0.9 | 1.7 | 0.00 | 0.00 | 0.00 | 99 | 1015.7 |
| 20260905173612 | 65 | 213 | 2.6 | 2.6 | 0.00 | 0.00 | 0.00 | 99 | 1015.7 |
| 20260905172414 | 65 | 267 | 1.7 | 1.7 | 0.00 | 0.00 | 0.00 | 99 | 1015.7 |
| 20260905171214 | 65 | 220 | 0.9 | 1.7 | 0.00 | 0.00 | 0.00 | 99 | 1015.7 |
| 20260905170012 | 65 | 212 | 1.7 | 1.7 | 0.00 | 0.00 | 0.00 | 99 | 1015.6 |
| 20260905164812 | 65 | 232 | 1.7 | 2.6 | 0.00 | 0.00 | 0.00 | 99 | 1015.5 |
| 20260905163614 | 65 | 208 | 0.9 | 1.7 | 0.00 | 0.00 | 0.00 | 99 | 1015.7 |
| 20260905162413 | 65 | 197 | 1.7 | 2.6 | 0.00 | 0.00 | 0.00 | 99 | 1015.6 |
| 20260905161212 | 65 | 244 | 2.6 | 3.5 | 0.00 | 0.00 | 0.00 | 99 | 1015.2 |
| 20260905160012 | 65 | 223 | 2.6 | 3.5 | 0.00 | 0.00 | 0.00 | 99 | 1015.7 |
| 20260905154814 | 65 | 191 | 1.7 | 2.6 | 0.00 | 0.00 | 0.00 | 99 | 1015.4 |
| 20260905153614 | 65 | 287 | 3.5 | 3.5 | 0.00 | 0.00 | 0.00 | 98 | 1015.5 |
| 20260905152414 | 66 | 270 | 0.9 | 1.7 | 0.00 | 0.00 | 0.00 | 98 | 1015.4 |
| 20260905145928 | 66 | 244 | 1.7 | 1.7 | 0.00 | 0.20 | 0.20 | 97 | 1015.5 |
| 20260905123919 | 69 | 256 | 0.9 | 2.6 | 0.00 | 0.00 | 0.20 | 99 | 1014.9 |
| 20260905122719 | 68 | 122 | 3.5 | 11.3 | 0.00 | 0.00 | 0.20 | 98 | 1014.8 |
| 20260905122402 | 68 | 50 | 2.6 | 5.2 | 0.00 | 0.33 | 0.20 | 99 | 1014.8 |
| 20260905121203 | 68 | 259 | 0.0 | 0.9 | 0.00 | 0.33 | 0.20 | 99 | 1014.9 |
| 20260905120003 | 68 | 269 | 0.9 | 1.7 | 0.00 | 0.33 | 0.20 | 99 | 1014.9 |
| 20260905114802 | 68 | 244 | 0.0 | 0.0 | 0.00 | 0.34 | 0.20 | 99 | 1014.8 |
| 20260905113604 | 67 | 271 | 0.9 | 0.9 | 0.00 | 0.35 | 0.20 | 99 | 1014.6 |
| 20260905112402 | 67 | 278 | 1.7 | 2.6 | 0.00 | 0.35 | 0.20 | 99 | 1014.6 |
| 20260905111202 | 68 | 267 | 1.7 | 2.6 | 0.00 | 0.36 | 0.20 | 99 | 1014.4 |
| 20260905110002 | 67 | 262 | 1.7 | 1.7 | 0.00 | 0.36 | 0.20 | 99 | 1014.4 |
| 20260905104801 | 68 | 272 | 1.7 | 1.7 | 0.00 | 0.36 | 0.20 | 99 | 1014.3 |
| 20260905103602 | 68 | 220 | 0.0 | 0.0 | 0.00 | 0.37 | 0.20 | 99 | 1014.1 |
| 20260905102403 | 68 | 230 | 1.7 | 1.7 | 0.00 | 0.38 | 0.20 | 99 | 1014.2 |
| 20260905101202 | 68 | 312 | 1.7 | 2.6 | 0.00 | 0.38 | 0.20 | 99 | 1014.0 |
| 20260905100003 | 68 | 245 | 0.0 | 0.0 | 0.00 | 0.38 | 0.20 | 99 | 1013.6 |
| 20260905094802 | 69 | 211 | 0.9 | 0.9 | 0.00 | 0.38 | 0.20 | 99 | 1013.4 |
| 20260905093601 | 69 | 242 | 0.9 | 1.7 | 0.00 | 0.38 | 0.20 | 99 | 1013.3 |
| 20260905092401 | 69 | 257 | 0.9 | 1.7 | 0.00 | 0.38 | 0.20 | 99 | 1013.3 |
| 20260905091201 | 70 | 152 | 1.7 | 2.6 | 0.00 | 0.38 | 0.20 | 99 | 1013.3 |
| 20260905090003 | 71 | 225 | 0.9 | 0.9 | 0.00 | 0.38 | 0.20 | 99 | 1013.0 |
| 20260905084802 | 71 | 108 | 0.0 | 0.0 | 0.00 | 0.38 | 0.20 | 98 | 1013.0 |
| 20260905083602 | 71 | 110 | 0.0 | 0.0 | 0.00 | 0.38 | 0.20 | 99 | 1012.9 |
| 20260905082402 | 72 | 286 | 0.0 | 0.0 | 0.00 | 0.38 | 0.20 | 97 | 1012.6 |
| 20260905081201 | 71 | 146 | 0.0 | 1.7 | 0.00 | 0.38 | 0.20 | 98 | 1012.6 |
| 20260905080002 | 71 | 172 | 1.7 | 2.6 | 0.00 | 0.38 | 0.20 | 98 | 1012.6 |
| 20260905074803 | 72 | 165 | 0.9 | 1.7 | 0.00 | 0.38 | 0.20 | 96 | 1012.5 |
| 20260905073603 | 74 | 117 | 0.0 | 0.9 | 0.00 | 0.38 | 0.20 | 92 | 1012.4 |
| 20260905072402 | 75 | 58 | 0.0 | 0.0 | 0.00 | 0.38 | 0.20 | 91 | 1012.3 |
| 20260905071201 | 74 | 58 | 0.0 | 0.0 | 0.00 | 0.38 | 0.20 | 92 | 1012.3 |
| 20260905070002 | 74 | 91 | 0.0 | 0.9 | 0.00 | 0.38 | 0.20 | 92 | 1012.1 |
| 20260905064802 | 74 | 27 | 0.9 | 1.7 | 0.00 | 0.38 | 0.20 | 88 | 1012.2 |
| 20260905063603 | 74 | 3 | 0.0 | 0.9 | 0.00 | 0.38 | 0.20 | 88 | 1012.1 |
| 20260905062403 | 74 | 359 | 0.0 | 0.9 | 0.00 | 0.38 | 0.20 | 89 | 1012.1 |
| 20260905061202 | 74 | 308 | 2.6 | 4.3 | 0.00 | 0.38 | 0.20 | 89 | 1012.4 |
| 20260905060002 | 76 | 103 | 0.9 | 2.6 | 0.00 | 0.38 | 0.20 | 87 | 1012.2 |
| 20260905054802 | 74 | 285 | 0.0 | 0.9 | 0.00 | 0.38 | 0.20 | 90 | 1012.3 |
| 20260905053604 | 73 | 330 | 0.9 | 1.7 | 0.00 | 0.38 | 0.20 | 92 | 1012.2 |
| 20260905052403 | 72 | 327 | 1.7 | 2.6 | 0.00 | 0.38 | 0.20 | 93 | 1012.2 |
| 20260905051203 | 73 | 6 | 0.0 | 0.9 | 0.00 | 0.38 | 0.20 | 93 | 1012.2 |
| 20260905050002 | 72 | 303 | 2.6 | 4.3 | 0.00 | 0.38 | 0.20 | 93 | 1012.1 |
| 20260905044802 | 73 | 300 | 1.7 | 2.6 | 0.00 | 0.38 | 0.20 | 93 | 1012.1 |
| 20260905043602 | 71 | 308 | 0.0 | 1.7 | 0.00 | 0.38 | 0.20 | 95 | 1012.0 |
| 20260905042403 | 70 | 302 | 0.9 | 1.7 | 0.00 | 0.38 | 0.20 | 96 | 1012.0 |
| 20260905041202 | 70 | 302 | 0.0 | 0.9 | 0.00 | 0.38 | 0.20 | 98 | 1012.1 |
| 20260905040002 | 71 | 44 | 0.9 | 1.7 | 0.00 | 0.38 | 0.20 | 95 | 1012.3 |
| 20260905034802 | 70 | 103 | 1.7 | 2.6 | 0.00 | 0.38 | 0.20 | 96 | 1012.2 |
| 20260905033603 | 72 | 93 | 1.7 | 2.6 | 0.00 | 0.38 | 0.20 | 95 | 1012.3 |
| 20260905032403 | 70 | 53 | 2.6 | 4.3 | 0.00 | 0.38 | 0.20 | 95 | 1012.2 |
| 20260905031202 | 70 | 21 | 2.6 | 5.2 | 0.01 | 0.38 | 0.20 | 97 | 1012.2 |
| 20260905030003 | 69 | 20 | 4.3 | 7.0 | 0.01 | 0.38 | 0.20 | 98 | 1012.5 |
| 20260905024802 | 70 | 322 | 1.7 | 2.6 | 0.01 | 0.38 | 0.20 | 98 | 1012.3 |
| 20260905023603 | 70 | 56 | 0.0 | 0.0 | 0.01 | 0.38 | 0.20 | 99 | 1012.7 |
| 20260905022403 | 70 | 21 | 0.0 | 0.9 | 0.01 | 0.38 | 0.20 | 97 | 1013.0 |
| 20260905021201 | 66 | 86 | 1.7 | 1.7 | 0.00 | 0.38 | 0.19 | 99 | 1012.8 |
| 20260905020001 | 66 | 86 | 1.7 | 1.7 | 0.00 | 0.38 | 0.19 | 99 | 1012.9 |
| 20260905014802 | 66 | 86 | 1.7 | 1.7 | 0.00 | 0.38 | 0.19 | 99 | 1012.9 |
| 20260905013602 | 66 | 86 | 1.7 | 1.7 | 0.00 | 0.38 | 0.19 | 99 | 1013.0 |
| 20260905012403 | 66 | 86 | 1.7 | 1.7 | 0.00 | 0.38 | 0.19 | 99 | 1013.1 |
| 20260905011203 | 66 | 86 | 1.7 | 1.7 | 0.00 | 0.38 | 0.19 | 99 | 1013.2 |
| 20260905010001 | 66 | 86 | 1.7 | 1.7 | 0.00 | 0.38 | 0.19 | 99 | 1013.4 |
| 20260905004802 | 66 | 86 | 1.7 | 1.7 | 0.00 | 0.38 | 0.19 | 99 | 1013.3 |
| 20260905003603 | 66 | 86 | 1.7 | 1.7 | 0.00 | 0.38 | 0.19 | 99 | 1013.4 |
| 20260905002403 | 66 | 86 | 1.7 | 1.7 | 0.00 | 0.38 | 0.19 | 99 | 1013.1 |
| 20260905001203 | 66 | 86 | 1.7 | 1.7 | 0.00 | 0.38 | 0.19 | 99 | 1013.2 |
| 20260905000003 | 66 | 86 | 1.7 | 1.7 | 0.02 | 0.38 | 0.19 | 99 | 1013.1 |
| 20260904234802 | 66 | 55 | 2.6 | 2.6 | 0.03 | 0.38 | 0.19 | 99 | 1012.9 |
| 20260904233603 | 66 | 58 | 1.7 | 1.7 | 0.03 | 0.38 | 0.19 | 99 | 1012.7 |
| 20260904232403 | 66 | 64 | 2.6 | 4.3 | 0.03 | 0.38 | 0.19 | 99 | 1012.6 |
| 20260904231203 | 66 | 91 | 1.7 | 5.2 | 0.03 | 0.38 | 0.19 | 99 | 1012.7 |
| 20260904230002 | 67 | 335 | 0.0 | 0.0 | 0.01 | 0.36 | 0.17 | 99 | 1012.5 |
| 20260904224803 | 66 | 335 | 0.0 | 0.0 | 0.00 | 0.35 | 0.16 | 99 | 1012.6 |
| 20260904223602 | 67 | 335 | 0.0 | 0.0 | 0.00 | 0.35 | 0.16 | 99 | 1012.4 |
| 20260904222402 | 67 | 335 | 0.0 | 0.0 | 0.00 | 0.35 | 0.16 | 99 | 1012.4 |
| 20260904221204 | 66 | 334 | 0.0 | 0.0 | 0.01 | 0.35 | 0.16 | 99 | 1012.3 |
| 20260904220004 | 66 | 334 | 0.0 | 0.0 | 0.01 | 0.35 | 0.16 | 99 | 1012.5 |
| 20260904214803 | 66 | 334 | 0.0 | 0.0 | 0.01 | 0.35 | 0.16 | 99 | 1012.1 |
| 20260904213603 | 66 | 334 | 0.0 | 0.0 | 0.01 | 0.35 | 0.16 | 99 | 1012.1 |
| 20260904212402 | 66 | 332 | 0.0 | 1.7 | 0.01 | 0.35 | 0.16 | 99 | 1012.0 |
| 20260904211205 | 67 | 328 | 0.9 | 0.9 | 0.00 | 0.34 | 0.15 | 99 | 1012.0 |
| 20260904210003 | 67 | 302 | 0.0 | 0.0 | 0.00 | 0.34 | 0.15 | 99 | 1012.0 |
| 20260904204802 | 67 | 296 | 0.0 | 0.0 | 0.00 | 0.34 | 0.15 | 99 | 1011.8 |
| 20260904203604 | 66 | 279 | 0.0 | 0.0 | 0.00 | 0.34 | 0.15 | 99 | 1011.8 |
| 20260904202403 | 66 | 187 | 0.0 | 0.0 | 0.00 | 0.34 | 0.15 | 99 | 1011.7 |
| 20260904201204 | 66 | 183 | 0.9 | 1.7 | 0.01 | 0.34 | 0.15 | 99 | 1011.5 |
| 20260904200003 | 66 | 237 | 0.0 | 0.0 | 0.02 | 0.35 | 0.15 | 99 | 1011.6 |
| 20260904194802 | 66 | 321 | 0.9 | 1.7 | 0.03 | 0.35 | 0.15 | 99 | 1011.5 |
| 20260904193603 | 66 | 120 | 0.0 | 0.0 | 0.03 | 0.35 | 0.15 | 99 | 1010.9 |
| 20260904192403 | 66 | 126 | 0.0 | 0.0 | 0.04 | 0.35 | 0.15 | 99 | 1011.2 |
| 20260904191203 | 66 | 39 | 0.9 | 2.6 | 0.04 | 0.34 | 0.14 | 99 | 1011.1 |
| 20260904190002 | 66 | 354 | 1.7 | 2.6 | 0.04 | 0.33 | 0.13 | 99 | 1011.1 |
| 20260904184803 | 67 | 58 | 4.3 | 5.2 | 0.04 | 0.32 | 0.12 | 99 | 1010.7 |
| 20260904183601 | 67 | 90 | 0.9 | 2.6 | 0.05 | 0.32 | 0.12 | 99 | 1011.1 |
| 20260904182404 | 67 | 236 | 0.0 | 0.0 | 0.05 | 0.31 | 0.11 | 99 | 1011.8 |
| 20260904181204 | 67 | 173 | 1.7 | 2.6 | 0.04 | 0.30 | 0.10 | 99 | 1011.5 |
| 20260904180003 | 67 | 320 | 4.3 | 5.2 | 0.03 | 0.29 | 0.09 | 99 | 1011.3 |